User: anonymous   Login
Location: Aranbee
(34.0885°N, 118.2342°W)
Time: 23:12:51
(UTC+00:00)
Language:

Explorer 7 - Orbit

View from above orbital plane
View from above orbital plane
View from above satellite
View from above satellite

Ground track
Ground track

The orbit data is extracted from the following two-line orbital elements,

1    22U 59009A   21210.87149265  .00000163  00000-0  35136-4 0  9997
2    22  50.2851 349.7770 0138326  15.9032 344.6195 14.95635181286299
Epoch (UTC): 29 July 2021 20:54:56
Eccentricity: 0.0138326
inclination: 50.2851°
perigee height: 484 km
apogee height: 676 km
right ascension of ascending node: 349.7770°
argument of perigee: 15.9032°
revolutions per day: 14.95635181
mean anomaly at epoch: 344.6195°
orbit number at epoch: 28629

The dashed part of the orbit path shows where the satellite is in the earth's shadow,  

DLR